Location: Kapla
(46.2483°N, 15.0094°E)
Time: 19:58:04
(UTC+00:00)

CZ-4 R/B - Pass Details

Date: 03 March 2021
Orbit: 532 x 597 km, 97.7° (Epoch: 20 April)

Event Time Altitude Azimuth Distance (km) Brightness Sun altitude
Rises 18:01:36 0° 183° (S) 2,665 4.8 -13.3°
Reaches altitude 10° 18:03:47 10° 191° (S) 1,783 4.0 -13.7°
Maximum altitude 18:07:25 40° 262° (W) 806 2.8 -14.3°
Drops below altitude 10° 18:11:08 10° 333° (NNW) 1,820 4.4 -15.0°
Sets 18:13:23 0° 341° (NNW) 2,728 5.2 -15.3°
